Weather History for Traverse City, MI

Change the Weather History Date:

Tuesday, March 26, 2013

  Actual Average Record
Temperature  
Mean Temperature 37 °F 34 °F  
Max Temperature 41 °F 44 °F 75 °F (1925)
Min Temperature 32 °F 25 °F -7 °F (1923)
Degree Days  
Heating Degree Days 28 30  
Month to date heating degree days 967 916  
Since 1 July heating degree days 5813 6256  
Cooling Degree Days 0 0  
Month to date cooling degree days 0 0  
Year to date cooling degree days 0 0  
Moisture  
Dew Point 27 °F    
Average Humidity 69    
Maximum Humidity 89    
Minimum Humidity 48    
Precipitation  
Precipitation T in 0.07 in 0.54 in (1948)
Month to date precipitation 1.44 1.52  
Year to date precipitation 4.98 5.84  
Snow  
Snow 0.00 in - - ()
Snow Depth 2.00 in    
Sea Level Pressure  
Sea Level Pressure 30.08 in    
Wind  
Wind Speed 8 mph (NW)    
Max Wind Speed 16 mph    
Max Gust Speed 21 mph    
Visibility 9 miles    
Events Snow    
T = Trace of Precipitation, MM = Missing Value Source: NWS Daily Summary

Daily Weather History Graph

Daily Weather History Graph

Search for Another Location

Airport:

Trip Planner

Search our weather history database for the weather conditions in past years. The results will help you decide how hot, cold, wet, or windy it might be!

Date:

Astronomy

Mar. 26, 2013 Rise Set
Actual Time 7:33 AM EDT 8:02 PM EDT
Civil Twilight 7:04 AM EDT 8:32 PM EDT
Nautical Twilight 6:29 AM EDT 9:06 PM EDT
Astronomical Twilight 5:54 AM EDT 9:42 PM EDT
Moon 7:39 PM EDT (3/26) 6:50 AM EDT (3/26)
Length of Visible Light 13h 27m
Length of Day
12h 28m
Waxing Gibbous, 99% of the Moon is Illuminated
Mar 26
Waxing Gibbous
Mar 27
Full
Apr 3
Last Quarter
Apr 10
New
Apr 18
First Quarter

Hourly Weather History & Observations

Time (EDT) Temp. Windchill Dew Point Humidity Pressure Visibility Wind Dir Wind Speed Gust Speed Precip Events Conditions
12:04 AM 33.8 °F 29.6 °F 26.6 °F 75% 30.00 in 10.0 mi NW 4.6 mph - N/A   Overcast
12:39 AM 33.8 °F 29.6 °F 26.6 °F 75% 30.01 in 10.0 mi WNW 4.6 mph - N/A   Overcast
12:53 AM 34.0 °F 28.8 °F 27.0 °F 75% 30.03 in 10.0 mi NW 5.8 mph - N/A   Overcast
1:32 AM 33.8 °F 27.7 °F 28.4 °F 81% 30.00 in 9.0 mi NW 6.9 mph - 0.00 in Snow Light Snow
1:53 AM 34.0 °F 28.0 °F 28.9 °F 82% 30.02 in 9.0 mi NW 6.9 mph - 0.00 in Snow Light Snow
2:53 AM 34.0 °F 28.0 °F 28.9 °F 82% 30.03 in 10.0 mi NW 6.9 mph - 0.00 in   Overcast
3:53 AM 34.0 °F 28.0 °F 28.9 °F 82% 30.02 in 10.0 mi NW 6.9 mph - N/A   Overcast
4:53 AM 34.0 °F 29.8 °F 30.0 °F 85% 30.02 in 9.0 mi NW 4.6 mph - 0.00 in   Overcast
5:53 AM 34.0 °F 29.8 °F 28.9 °F 82% 30.03 in 10.0 mi NW 4.6 mph - N/A   Overcast
6:53 AM 34.0 °F 29.8 °F 28.9 °F 82% 30.04 in 9.0 mi NW 4.6 mph - 0.00 in Snow Light Snow
7:53 AM 34.0 °F 29.8 °F 28.9 °F 82% 30.06 in 9.0 mi NW 4.6 mph - 0.00 in Snow Light Snow
8:53 AM 35.1 °F 30.1 °F 28.9 °F 78% 30.07 in 9.0 mi NNW 5.8 mph - 0.00 in Snow Light Snow
9:22 AM 35.6 °F 29.9 °F 28.4 °F 75% 30.05 in 9.0 mi NW 6.9 mph - 0.00 in Snow Light Snow
9:53 AM 35.1 °F 28.6 °F 28.9 °F 78% 30.09 in 9.0 mi NNW 8.1 mph - 0.00 in Snow Light Snow
10:53 AM 35.1 °F 29.3 °F 30.0 °F 82% 30.10 in 7.0 mi NNW 6.9 mph - 0.00 in Snow Light Snow
11:53 AM 35.1 °F 29.3 °F 30.0 °F 82% 30.11 in 5.0 mi North 6.9 mph - 0.00 in Snow Light Snow
12:13 PM 35.6 °F 29.9 °F 30.2 °F 81% 30.09 in 2.0 mi NNW 6.9 mph - 0.00 in Snow Light Snow
12:27 PM 35.6 °F 28.6 °F 30.2 °F 81% 30.09 in 4.0 mi NNW 9.2 mph - 0.00 in Snow Light Snow
12:53 PM 36.0 °F 30.3 °F 30.0 °F 79% 30.11 in 9.0 mi North 6.9 mph - 0.00 in Snow Light Snow
1:17 PM 35.6 °F 28.6 °F 28.4 °F 75% 30.09 in 9.0 mi NNE 9.2 mph - 0.00 in Snow Light Snow
1:53 PM 36.0 °F 29.6 °F 28.9 °F 76% 30.12 in 9.0 mi North 8.1 mph - 0.00 in Snow Light Snow
2:41 PM 39.2 °F 33.0 °F 28.4 °F 65% 30.09 in 10.0 mi NNW 9.2 mph - 0.00 in   Unknown
2:53 PM 39.0 °F 33.4 °F 27.0 °F 62% 30.11 in 10.0 mi NNW 8.1 mph - 0.00 in   Overcast
3:53 PM 39.9 °F 32.9 °F 26.1 °F 58% 30.11 in 10.0 mi NW 11.5 mph - N/A   Mostly Cloudy
4:53 PM 39.9 °F 32.9 °F 24.1 °F 53% 30.10 in 10.0 mi NW 11.5 mph - N/A   Mostly Cloudy
5:53 PM 39.9 °F 32.1 °F 21.9 °F 49% 30.11 in 10.0 mi NW 13.8 mph - N/A   Scattered Clouds
6:53 PM 39.0 °F 31.4 °F 23.0 °F 53% 30.12 in 10.0 mi NW 12.7 mph - N/A   Scattered Clouds
7:53 PM 37.9 °F 31.5 °F 24.1 °F 57% 30.14 in 10.0 mi NW 9.2 mph 17.3 mph N/A   Mostly Cloudy
8:53 PM 37.0 °F 30.4 °F 24.1 °F 59% 30.14 in 10.0 mi NNW 9.2 mph - N/A   Mostly Cloudy
9:53 PM 36.0 °F 30.3 °F 25.0 °F 64% 30.16 in 10.0 mi NW 6.9 mph - N/A   Mostly Cloudy
10:53 PM 34.0 °F 28.0 °F 24.1 °F 67% 30.17 in 10.0 mi NW 6.9 mph - N/A   Clear
11:53 PM 33.1 °F 25.5 °F 23.0 °F 66% 30.17 in 10.0 mi NW 9.2 mph - N/A   Clear